This demonstration page uses our WeatherBlox Daily Observations layout. Learn more.

Left ArrowRight Arrow

39.12711, -84.51439

Hourly Observations for October 9, 2016

Temp ( °F °C ) Dew Point ( °F °C ) Humidity (%) Winds ( mph kmh ) Pressure ( in mb ) Visibility ( mi km ) Precip ( " mm )
12:53 am 00:53 Clear 46 7.8 44 6.7 93 93 Calm 30.26 1025 10 16 0.00 0.00
1:53 am 01:53 Clear 46 7.8 44 6.7 93 93 Calm 30.27 1025 10 16 0.00 0.00
2:53 am 02:53 Clear 51 10.6 42 5.6 71 71 N 6 9 30.29 1026 10 16 0.00 0.00
3:53 am 03:53 Clear 47 8.3 42 5.6 83 83 NNE 3 6 30.30 1026 10 16 0.00 0.00
4:53 am 04:53 Clear 46 7.8 44 6.7 93 93 Calm 30.29 1026 10 16 0.00 0.00
5:53 am 05:53 Clear 43 6.1 43 6.1 100 100 Calm 30.31 1027 9 14 0.00 0.00
6:53 am 06:53 Clear 43 6.1 42 5.6 97 97 Calm 30.34 1027 9 14 0.00 0.00
7:53 am 07:53 Sunny 42 5.6 42 5.6 100 100 Calm 30.37 1028 10 16 0.00 0.00
8:53 am 08:53 Sunny 47 8.3 47 8.3 100 100 Calm 30.38 1029 10 16 0.00 0.00
9:53 am 09:53 Sunny 52 11.1 43 6.1 72 72 Calm 30.39 1029 10 16 0.00 0.00
10:53 am 10:53 Sunny 56 13.3 43 6.1 62 62 VRB 3 6 30.40 1030 10 16 0.00 0.00
11:53 am 11:53 Sunny 58 14.4 42 5.6 56 56 Calm 30.40 1029 10 16 0.00 0.00
12:53 pm 12:53 Sunny 61 16.1 44 6.7 54 54 W 5 7 30.39 1029 10 16 0.00 0.00
1:53 pm 13:53 Sunny 64 17.8 44 6.7 48 48 Calm 30.35 1028 10 16 0.00 0.00
2:53 pm 14:53 Sunny 66 18.9 45 7.2 47 47 N 8 13 30.34 1027 10 16 0.00 0.00
3:53 pm 15:53 Sunny 67 19.4 45 7.2 45 45 N 9 15 30.33 1027 10 16 0.00 0.00
4:53 pm 16:53 Sunny 67 19.4 46 7.8 47 47 NNE 7 11 30.32 1027 10 16 0.00 0.00
5:53 pm 17:53 Sunny 66 18.9 47 8.3 50 50 NNE 6 9 30.32 1027 10 16 0.00 0.00
6:53 pm 18:53 Sunny 60 15.6 51 10.6 72 72 E 3 6 30.32 1027 10 16 0.00 0.00
7:53 pm 19:53 Clear 53 11.7 51 10.6 93 93 ENE 3 6 30.33 1027 10 16 0.00 0.00
8:53 pm 20:53 Clear 52 11.1 50 10 93 93 Calm 30.35 1028 10 16 0.00 0.00
9:53 pm 21:53 Clear 48 8.9 48 8.9 100 100 Calm 30.35 1028 10 16 0.00 0.00
10:53 pm 22:53 Clear 48 8.9 48 8.9 100 100 NE 3 6 30.36 1028 7 11 0.00 0.00
11:53 pm 23:53 Clear with Mist and Fog 48 8.9 48 8.9 100 100 ENE 3 6 30.36 1028 6 10 0.00 0.00

Powered by AerisWeather